Wind_Speed
21 22 22 22 23 24 24 25 25 26 27 28 29 29 29 31 32 32 32 33 33 34 35 36 37 37 38 38 38 38 38 39 40 40 39 39 40 40 39 39 39 39 40 41
22 22 23 24 25 25 26 26 26 26 28 29 29 30 29 30 31 31 32 32 33 34 35 36 37 38 38 39 39 38 39 39 39 39 40 40 40 40 39 39 40 41 41 41
23 23 25 25 25 26 26 27 27 27 28 29 30 31 29 30 31 31 32 32 33 34 34 35 37 38 38 39 39 39 39 39 40 39 39 39 39 39 40 40 39 40 41 41
23 23 24 25 26 27 27 27 27 28 29 30 30 32 30 30 31 31 32 33 33 34 35 35 36 37 38 38 38 39 39 40 40 40 40 40 40 39 39 40 40 40 41 41
24 24 25 25 26 27 27 27 28 29 30 30 30 32 31 31 31 31 33 33 33 34 35 36 36 37 38 38 38 38 39 40 40 40 41 41 42 41 41 42 43 43 43 42
25 25 26 26 26 26 27 27 29 30 30 31 30 32 31 30 30 32 33 34 34 35 36 36 36 37 38 39 39 40 40 40 41 42 42 43 43 43 43 43 44 44 44 43
26 26 26 26 27 27 27 28 30 31 32 32 31 33 32 29 30 30 32 34 34 35 36 36 37 37 37 39 40 40 41 42 43 43 44 44 45 44 44 45 45 45 45 44
28 27 27 27 28 28 28 29 30 32 34 33 32 33 32 30 31 31 32 33 35 35 37 37 37 38 37 38 39 40 41 41 43 44 45 45 45 45 45 46 47 47 46 46
28 28 27 28 28 29 29 29 30 33 35 35 35 34 33 32 32 33 32 33 33 35 36 37 37 38 38 39 40 41 42 42 43 45 45 46 46 46 47 47 47 48 49 49
27 29 28 29 29 29 29 29 31 33 35 36 36 34 33 32 33 33 33 33 34 34 36 36 37 38 39 40 40 41 42 42 43 45 46 47 47 47 47 48 49 49 50 50
28 29 28 28 28 29 29 30 31 33 35 36 36 34 32 32 32 33 33 33 34 34 35 36 36 37 38 40 40 41 41 41 42 44 46 47 48 48 49 49 50 50 50 50
29 30 30 29 28 29 30 31 32 34 35 36 37 35 33 32 32 33 34 35 35 35 35 35 36 37 37 38 39 40 41 42 43 44 46 48 49 50 50 50 51 50 51 52
30 31 31 31 30 30 30 31 33 34 35 36 37 36 34 33 33 34 35 35 35 35 35 36 36 36 37 37 39 40 40 42 42 44 46 46 48 49 49 50 50 50 51 53
31 32 32 32 32 32 31 31 33 35 36 36 36 35 33 34 35 35 35 36 37 36 37 37 37 37 38 38 39 40 41 41 42 44 46 46 47 49 50 50 50 50 51 52
32 33 33 33 33 33 33 33 34 35 35 37 35 34 33 33 35 36 36 36 37 38 38 38 39 39 39 40 40 40 42 42 43 45 46 45 46 48 50 51 52 51 51 52
33 34 34 33 34 34 35 34 35 35 35 35 35 34 33 34 35 36 36 36 36 37 38 39 39 40 40 40 41 42 42 43 44 45 46 45 46 47 49 50 51 52 52 53
33 35 35 35 35 36 36 34 35 36 35 36 36 35 35 36 36 36 35 35 36 38 39 39 39 40 41 41 41 43 43 44 45 46 46 46 46 47 48 48 49 50 51 52
33 34 36 36 36 37 36 35 35 36 35 35 36 36 36 36 36 36 36 36 36 38 39 40 40 40 40 40 40 41 42 44 45 46 47 46 46 47 48 49 49 50 50 51
33 34 36 36 37 37 35 35 36 37 36 36 36 36 36 37 37 37 37 37 37 38 38 39 39 39 40 40 40 40 41 42 43 44 45 46 47 47 48 48 48 49 49 50
34 34 35 35 36 37 36 35 36 37 38 37 37 37 37 37 38 38 38 38 38 38 38 39 39 39 39 39 39 39 40 41 42 44 44 45 46 47 48 48 49 49 50 50
33 34 35 36 36 36 35 35 36 37 37 37 37 37 37 37 38 38 38 38 38 38 38 38 38 38 39 39 38 39 39 40 41 42 43 43 44 45 46 47 48 48 49 50
34 35 36 36 37 37 37 37 37 38 38 38 38 38 38 37 37 37 38 38 38 38 38 38 38 38 39 39 39 39 39 40 41 41 42 42 43 44 45 45 46 46 47 48
33 35 35 36 36 37 38 38 39 39 39 39 39 38 38 38 38 38 38 39 38 38 39 39 39 39 39 40 40 40 39 40 40 40 40 41 41 41 42 43 44 45 45 46
33 34 36 37 37 38 39 38 38 38 39 39 39 39 39 40 40 40 39 39 39 39 39 39 39 39 39 40 40 40 40 40 41 40 40 40 40 40 40 41 42 42 43 44
33 35 36 37 37 38 37 37 38 38 39 39 39 39 40 40 41 41 41 40 40 40 40 40 39 39 39 40 40 40 40 40 40 40 40 40 41 41 41 41 41 41 41 42
33 35 37 37 37 39 38 38 38 39 39 40 40 39 39 40 40 41 41 40 40 40 41 41 41 40 40 40 40 40 40 41 41 40 41 40 40 40 40 41 42 42 41 41
Wind_Direction
273 270 269 269 269 271 272 272 272 272 270 265 263 262 260 259 258 258 258 255 253 253 254 253 252 251 249 249 249 250 250 248 248 248 246 247 247 247 247 248 249 250 249 249
273 270 271 270 270 272 273 274 274 273 270 268 264 261 260 259 258 258 258 256 254 254 254 253 252 252 251 251 251 251 251 250 249 248 246 246 246 247 247 248 248 249 250 250
273 274 271 270 271 273 274 276 277 276 273 271 268 263 260 260 259 259 258 257 256 254 256 254 253 253 253 253 252 251 251 249 248 247 245 244 245 245 246 247 249 250 250 250
275 274 272 270 271 275 276 278 278 277 276 274 272 268 261 259 260 258 257 257 256 256 257 257 255 253 253 253 251 250 250 249 248 248 245 244 245 246 246 247 249 250 250 250
276 274 272 272 274 275 277 278 277 278 277 275 272 272 267 262 261 258 257 257 257 256 257 258 256 255 253 253 252 250 249 249 248 248 245 245 247 248 247 248 249 251 250 251
276 276 274 274 274 275 276 277 277 277 277 276 275 274 272 267 263 260 258 258 258 257 257 257 256 256 254 253 253 251 250 250 249 249 247 247 249 250 249 249 250 250 251 251
276 276 276 275 275 275 277 277 278 278 277 276 277 275 275 271 266 263 262 261 260 259 258 257 257 257 256 254 252 251 251 251 250 250 249 249 249 250 251 250 250 250 250 251
278 276 277 277 277 279 279 278 278 279 280 280 279 277 276 273 271 267 265 264 262 260 258 258 258 257 257 255 254 253 253 253 252 251 251 250 250 250 251 250 249 250 250 251
279 278 279 279 279 280 279 279 280 281 281 281 281 280 275 273 272 270 267 266 264 263 261 259 259 258 257 257 256 255 254 254 254 253 251 250 250 251 251 251 251 251 251 252
279 280 280 280 279 279 280 280 280 280 281 282 283 282 279 277 274 272 269 268 267 266 264 262 262 260 259 259 259 258 257 256 256 253 251 251 251 252 252 253 252 253 253 253
279 281 281 281 280 280 280 279 278 279 280 283 284 282 281 279 277 274 271 270 269 268 267 266 265 264 262 260 260 260 258 257 257 255 253 252 251 253 253 254 254 253 254 253
281 281 281 282 281 280 281 280 279 279 280 281 283 283 282 281 278 274 272 271 270 269 268 267 266 265 264 263 261 261 259 258 257 256 253 253 253 254 254 254 255 255 255 255
281 280 280 281 280 281 281 281 280 280 280 281 282 284 282 281 277 275 274 272 271 270 268 268 267 266 265 264 262 260 259 259 258 256 255 254 255 255 254 254 255 255 256 256
279 279 279 280 281 282 282 282 281 279 279 281 282 284 281 280 277 276 275 273 270 269 269 268 268 267 265 264 262 261 260 260 260 258 256 256 256 256 255 255 256 256 256 256
277 279 279 278 278 279 279 280 280 281 281 282 283 283 283 281 278 276 276 275 273 270 270 269 268 267 267 265 263 262 262 261 261 260 259 258 259 258 257 257 257 256 257 257
277 279 279 277 277 278 279 280 282 282 282 282 282 282 282 280 278 277 277 276 274 272 271 271 270 268 267 266 264 262 262 260 260 260 259 260 260 260 259 259 258 257 257 258
277 278 279 278 277 277 277 280 281 282 281 281 282 283 282 280 278 278 277 275 274 273 272 272 271 270 268 267 266 265 264 262 260 259 260 260 261 262 261 260 259 258 259 259
279 279 279 279 279 278 279 279 279 280 281 281 280 280 282 281 279 280 278 275 275 276 274 274 273 272 270 269 268 267 266 264 261 260 260 261 262 262 261 260 260 260 260 260
280 279 279 280 281 281 280 282 282 281 281 281 282 281 280 280 279 279 278 275 275 276 274 274 274 272 271 270 269 268 267 266 264 261 261 262 262 261 261 260 260 261 261 260
281 280 279 280 282 283 284 284 283 282 281 281 282 282 281 279 278 278 279 278 277 277 276 275 274 273 273 272 271 269 267 267 265 263 262 263 262 261 260 260 261 261 260 260
282 281 281 282 282 284 286 285 284 283 284 283 282 282 281 280 279 278 278 278 278 278 277 276 275 274 273 272 271 270 269 268 266 265 264 264 263 262 261 261 261 261 262 261
281 281 281 282 283 285 285 285 285 285 284 283 283 282 281 280 280 279 278 278 277 277 277 276 275 274 273 272 272 271 269 269 268 267 266 265 264 264 263 262 261 261 262 262
281 280 280 281 283 284 285 285 285 285 284 284 283 283 281 281 280 279 279 278 277 277 277 278 276 274 273 272 272 271 270 269 269 268 266 265 264 264 264 262 261 262 262 261
281 281 282 282 282 283 284 284 283 284 283 283 283 282 281 281 281 279 279 279 277 277 277 278 277 275 273 272 272 272 271 269 269 269 266 264 264 264 264 262 262 262 262 261
284 282 283 284 284 282 283 284 283 283 284 283 281 280 280 280 280 279 278 278 279 278 278 278 278 276 275 272 271 272 271 270 270 269 267 265 264 263 263 263 263 264 264 263
286 286 286 286 285 284 284 284 283 283 284 283 282 280 280 280 279 278 278 278 279 280 280 279 278 276 274 272 271 271 271 270 270 269 268 266 265 263 264 264 264 264 264 263
Height
5701 5701 5700 5700 5699 5699 5698 5698 5698 5698 5696 5696 5697 5697 5698 5698 5698 5699 5700 5701 5702 5704 5705 5706 5707 5708 5709 5711 5712 5713 5715 5717 5719 5722 5724 5727 5729 5732 5734 5736 5738 5740 5742 5744
5695 5695 5695 5693 5693 5692 5692 5691 5691 5691 5689 5688 5688 5689 5690 5689 5690 5691 5691 5692 5693 5694 5695 5696 5697 5698 5699 5701 5702 5703 5705 5707 5709 5712 5714 5717 5719 5721 5724 5726 5729 5731 5733 5734
5689 5690 5688 5687 5687 5686 5685 5685 5684 5683 5682 5680 5680 5680 5681 5681 5681 5682 5683 5683 5684 5685 5685 5686 5687 5688 5689 5691 5692 5694 5695 5697 5700 5701 5704 5707 5709 5711 5714 5717 5719 5721 5723 5725
5682 5682 5681 5680 5680 5679 5679 5678 5677 5675 5674 5673 5672 5670 5674 5673 5673 5673 5674 5674 5675 5676 5676 5677 5677 5678 5679 5680 5682 5684 5686 5687 5689 5691 5694 5697 5700 5702 5704 5706 5708 5710 5712 5714
5676 5675 5674 5673 5673 5672 5671 5670 5669 5667 5665 5664 5664 5662 5664 5664 5664 5665 5666 5666 5666 5666 5666 5667 5667 5668 5669 5670 5672 5674 5676 5677 5679 5681 5684 5687 5689 5692 5694 5696 5698 5699 5701 5704
5669 5668 5667 5666 5666 5664 5663 5662 5661 5659 5657 5656 5656 5653 5654 5655 5656 5656 5656 5656 5656 5656 5656 5657 5658 5658 5660 5661 5662 5663 5665 5667 5669 5671 5673 5676 5678 5681 5683 5685 5687 5689 5691 5693
5661 5661 5659 5658 5657 5657 5655 5655 5653 5650 5648 5648 5648 5645 5645 5647 5647 5646 5646 5646 5646 5646 5646 5647 5647 5649 5650 5651 5651 5653 5655 5657 5658 5660 5662 5665 5667 5670 5672 5674 5676 5678 5680 5681
5653 5653 5652 5651 5650 5649 5648 5647 5645 5643 5641 5640 5639 5636 5638 5638 5637 5637 5637 5636 5636 5636 5636 5637 5637 5638 5639 5640 5641 5642 5644 5646 5647 5649 5651 5653 5655 5658 5660 5662 5664 5666 5668 5670
5645 5645 5644 5643 5642 5641 5639 5638 5637 5635 5632 5630 5629 5629 5630 5629 5629 5628 5627 5627 5626 5626 5626 5626 5627 5628 5629 5629 5630 5631 5633 5634 5636 5637 5639 5641 5643 5645 5648 5650 5651 5654 5655 5657
5637 5636 5636 5635 5633 5632 5631 5630 5628 5625 5622 5620 5620 5620 5620 5620 5619 5618 5618 5617 5616 5616 5616 5616 5616 5617 5617 5618 5618 5619 5621 5622 5623 5625 5627 5629 5631 5633 5635 5637 5638 5640 5642 5644
5629 5629 5628 5626 5625 5624 5623 5621 5619 5616 5614 5612 5609 5613 5612 5610 5609 5608 5608 5607 5606 5606 5606 5606 5606 5606 5606 5607 5607 5608 5609 5610 5611 5612 5614 5616 5618 5620 5622 5623 5625 5627 5628 5630
5621 5620 5618 5618 5617 5615 5613 5612 5610 5609 5606 5603 5601 5605 5602 5601 5599 5598 5598 5597 5596 5596 5595 5595 5595 5595 5595 5595 5595 5596 5597 5598 5599 5600 5601 5603 5604 5606 5608 5610 5612 5613 5615 5616
5612 5611 5609 5609 5610 5607 5605 5603 5601 5599 5597 5594 5592 5595 5593 5591 5589 5588 5587 5586 5585 5585 5585 5584 5584 5584 5584 5583 5583 5584 5584 5585 5586 5587 5588 5590 5591 5592 5594 5596 5598 5599 5601 5602
5603 5601 5601 5601 5599 5597 5596 5595 5592 5589 5587 5585 5584 5584 5583 5581 5579 5578 5577 5576 5575 5574 5573 5573 5573 5572 5572 5571 5571 5571 5572 5572 5573 5574 5575 5576 5578 5579 5581 5582 5583 5585 5586 5588
5593 5592 5591 5590 5589 5587 5586 5585 5583 5580 5578 5576 5575 5573 5573 5571 5568 5567 5566 5565 5564 5563 5562 5562 5561 5561 5560 5559 5559 5559 5560 5560 5560 5561 5562 5563 5564 5565 5567 5568 5569 5570 5572 5573
5583 5582 5581 5580 5579 5577 5576 5575 5573 5570 5568 5566 5564 5563 5562 5559 5558 5556 5555 5554 5553 5552 5551 5550 5549 5548 5547 5547 5547 5547 5547 5547 5547 5548 5549 5550 5551 5552 5552 5553 5554 5555 5557 5558
5573 5571 5570 5569 5568 5565 5565 5566 5563 5561 5559 5557 5554 5554 5551 5549 5547 5546 5544 5543 5541 5540 5539 5538 5537 5536 5535 5535 5534 5533 5533 5533 5534 5535 5536 5536 5537 5538 5538 5539 5540 5541 5542 5543
5563 5561 5558 5557 5557 5554 5558 5555 5553 5550 5549 5546 5544 5542 5540 5538 5536 5535 5533 5531 5530 5528 5527 5526 5525 5523 5523 5522 5521 5520 5520 5520 5520 5521 5522 5523 5523 5524 5524 5525 5526 5527 5527 5528
5552 5550 5547 5546 5543 5543 5546 5544 5541 5538 5537 5536 5533 5531 5529 5527 5525 5524 5522 5520 5518 5517 5515 5514 5512 5511 5511 5510 5509 5508 5507 5507 5507 5508 5508 5509 5509 5510 5510 5511 5512 5512 5513 5514
5542 5540 5538 5535 5532 5532 5535 5532 5528 5526 5525 5525 5521 5519 5517 5515 5513 5513 5511 5509 5507 5505 5504 5502 5501 5499 5498 5497 5496 5496 5495 5494 5494 5494 5494 5495 5495 5495 5496 5497 5497 5498 5499 5500
5532 5529 5527 5525 5521 5521 5522 5519 5516 5516 5515 5512 5509 5507 5505 5503 5502 5501 5499 5497 5495 5494 5492 5490 5489 5487 5486 5485 5484 5483 5483 5482 5481 5481 5481 5481 5481 5482 5482 5482 5483 5484 5484 5485
5521 5519 5517 5514 5512 5513 5510 5508 5506 5504 5502 5499 5497 5495 5493 5491 5489 5488 5487 5485 5484 5482 5480 5479 5477 5475 5474 5473 5472 5471 5471 5470 5469 5468 5468 5468 5468 5468 5468 5468 5469 5469 5470 5471
5511 5510 5506 5505 5504 5501 5499 5496 5494 5492 5490 5487 5485 5484 5482 5479 5478 5476 5475 5473 5472 5470 5469 5467 5465 5463 5461 5460 5459 5459 5458 5457 5456 5456 5455 5454 5454 5454 5454 5454 5455 5455 5456 5457
5501 5498 5495 5493 5492 5490 5487 5484 5482 5480 5478 5475 5473 5472 5469 5467 5466 5464 5463 5461 5459 5458 5456 5454 5452 5451 5449 5448 5447 5446 5445 5444 5444 5443 5442 5442 5441 5441 5441 5441 5442 5442 5442 5443
5490 5487 5484 5482 5481 5478 5476 5473 5470 5468 5465 5463 5461 5459 5457 5455 5454 5452 5450 5449 5447 5445 5444 5442 5440 5438 5437 5435 5434 5433 5433 5432 5431 5430 5430 5429 5428 5428 5428 5428 5429 5429 5429 5429
5480 5476 5474 5471 5469 5466 5464 5461 5458 5456 5453 5451 5449 5447 5445 5443 5441 5439 5438 5436 5434 5433 5431 5429 5427 5425 5424 5423 5422 5421 5420 5419 5418 5418 5417 5416 5416 5416 5416 5416 5416 5416 5416 5416